User: anonymous   Login
Location: Oshawa
(43.9000°N, 78.8670°W)
Time: 23:40:24
(UTC-04:00)
Language:

Cosmos 1953 Rocket - Orbit

View from above orbital plane
View from above orbital plane
View from above satellite
View from above satellite

Ground track
Ground track

The orbit data is extracted from the following two-line orbital elements,

1 19211U 88050B   16122.40506291  .00000136  00000-0  13779-4 0  9995
2 19211  82.5285 227.5107 0022778  37.6947  28.9861 14.82891424505762
Epoch (UTC): 01 May 2016 09:43:17
Eccentricity: 0.0022778
inclination: 82.5285°
perigee height: 604 km
apogee height: 636 km
right ascension of ascending node: 227.5107°
argument of perigee: 37.6947°
revolutions per day: 14.82891424
mean anomaly at epoch: 28.9861°
orbit number at epoch: 50576

The dashed part of the orbit path shows where the satellite is in the earth's shadow,  

DLR